Find Starlink 4102

NORAD ID: 53143 Int'l Des: 2022-083 Owner: SPXS Country: US Constellation: starlink operational
LEOCIRCULAR

Live Position

Loading 3D Globe...

About Starlink 4102

Description loading...

Upcoming Passes

Passes for default location (London). Set your location on the main map for personalized predictions.

Altitude History

Loading altitude history...

Two-Line Element Set

1 53143U 22083M 26122.42848398 .00000039 00000-0 20519-4 0 9993
2 53143 53.2174 292.8794 0001241 91.7676 268.3459 15.08837078209336
Epoch: May 2, 2026 • Age: 12 hours

Current Status

Altitude 551.2 km
Velocity 7.59 km/s
Sub-Earth Point -34.32°S, 55.77°W
Launch Date Jul 17, 2022
Age 3.7 years
Type internet

Technical Details

Classification Payload
Mass 297.00 kg
Dry Mass 275.00 kg
Total Mass 297.00 kg
Length 0.20 m
Diameter 2.80 m
Span 9.00 m
Shape Box + pan
Manufacturer SPXS
Bus Type Starlink
Phase Status In Orbit
Owner/State SPXS/US

Most Searched